{"data":{"norad_id":69811,"intl_designator":"2026-153M","name":"QIANFAN-212","alt_names":[],"object_type":"PAYLOAD","status":"ACTIVE","operator":null,"country":"PRC","launch_date":"2026-07-04","launch_site_code":"TAISC","launch_vehicle":null,"mission":null,"orbit_class":"UNKNOWN","rcs_meters":null,"size_class":null,"mass_kg":null,"dimensions":null,"purposes":[],"wikipedia_slug":null,"has_3d_model":false,"image_url":null,"decayed_at":null,"tle_current":{"epoch":"2026-09-20T01:34:55.126848Z","epoch_age_seconds":59180,"freshness":"FRESH","line1":"1 69811U 26153M   26263.06591582 -.00000003  00000+0 -10134-4 0  9994","line2":"2 69811  88.9977 351.4852 0008159 351.4384   8.6659 14.08612333 11001","mean_motion":14.08612333,"eccentricity":0.0008159,"inclination_deg":88.9977,"raan_deg":351.4852,"arg_perigee_deg":351.4384,"mean_anomaly_deg":8.6659,"bstar":-1.0134e-5,"rev_number":1100,"period_min":102.22826864884,"perigee_km":858.21523221699,"apogee_km":870.03315403194,"semimajor_km":7242.2611931245,"source":"CELESTRAK","updated_at":"2026-09-20T09:00:25.122240Z"}}}